Regional Weather Roundup
Issued by NWS

Home | Current Version | Previous Version | Graphics & Text | Print | Product List | Glossary On
Versions: 1 2 3 4 5 6 7 8 9 10 11 12 13 14 15 16 17 18 19 20 21 22 23 24 25 26 27 28 29 30 31 32 33 34 35 36 37 38 39 40 41 42 43 44 45 46 47 48 49 50
000
ASUS43 KOAX 291510
RWRNE

WEATHER ROUNDUP FOR NEBRASKA
NATIONAL WEATHER SERVICE OMAHA NE
1000 AM CDT MON AUG 29 2016

NOTES: SATELLITE DATA IS BEING USED TO AUGMENT CLOUD COVER ABOVE
       12000 FEET.
       "FAIR" INDICATES FEW OR NO CLOUDS BELOW 12,000 FEET WITH NO
       SIGNIFICANT WEATHER AND/OR OBSTRUCTIONS TO VISIBILITY.

  * THESE STATIONS DO NOT REPORT WEATHER SUCH AS RAIN...SNOW OR FOG.

NEZ001>004-019>022-054>056-291600-
NEBRASKA PANHANDLE

CITY           SKY/WX    TMP DP  RH WIND       PRES   REMARKS
SCOTTSBLUFF    SUNNY     71  51  49 CALM      30.23S
ALLIANCE       SUNNY     66  57  72 S3        30.23R
CHADRON        SUNNY     69  52  54 NE8       30.23R
KIMBALL        SUNNY     68  52  56 NW6       30.28S
SIDNEY         SUNNY     70  53  54 NW6       30.25S
$$

NEZ057>060-069>072-079>082-291600-
SOUTHWEST NEBRASKA

CITY           SKY/WX    TMP DP  RH WIND       PRES   REMARKS
NORTH PLATTE   CLOUDY    67  63  87 N3        30.20R
IMPERIAL       CLOUDY    66  62  87 S6        30.23R
LEXINGTON      PTSUNNY   71  64  80 SE10      30.21R
MCCOOK         MOSUNNY   71  66  84 SE12      30.18F
OGALLALA       SUNNY     72  63  72 SW8       30.22S
$$

NEZ005>010-023>029-035>040-094-291600-
NORTH CENTRAL NEBRASKA

CITY           SKY/WX    TMP DP  RH WIND       PRES   REMARKS
VALENTINE      SUNNY     76  62  62 SW10      30.17F
AINSWORTH      SUNNY     76  65  70 SW10      30.18S
BROKEN BOW     CLOUDY    69  64  84 SE5       30.20R
O`NEILL        PTSUNNY   76  64  65 SW10      30.18S
ORD            PTSUNNY   71  62  73 SE8       30.19R
THEDFORD       MOSUNNY   76  61  58 SW8       30.21S
$$

NEZ041-046>049-061>064-073>077-083>087-291600-
SOUTH CENTRAL NEBRASKA

CITY           SKY/WX    TMP DP  RH WIND       PRES   REMARKS
GRAND ISLAND   CLOUDY    71  64  78 SE9       30.20S
AURORA         MOSUNNY   73  69  89 SE8       30.20S
HASTINGS       MOSUNNY   70  65  84 SE6       30.22R
HEBRON         MOSUNNY   71  68  93 CALM      30.20S
HOLDREGE       MOSUNNY   72  65  78 SE7       30.21S
KEARNEY *      MOSUNNY   73  63  68 SE3       30.19S
YORK           MOSUNNY   73  68  83 SE9       30.21R
$$

NEZ011>018-030>034-042>045-291600-
NORTHEAST NEBRASKA

CITY           SKY/WX    TMP DP  RH WIND       PRES   REMARKS
NORFOLK        CLOUDY    71  65  81 S7        30.20R
ALBION         PTSUNNY   71  64  78 S6        30.20R
BLAIR          MOSUNNY   75  70  83 CALM      30.19S
FREMONT        MOSUNNY   75  70  83 SE9       30.20R
TEKAMAH        CLOUDY    72  69  90 S7        30.19R
WAYNE          CLOUDY    71  68  92 S7        30.21R
$$

NEZ050>053-065>068-078-088>093-291600-
SOUTHEAST NEBRASKA

CITY           SKY/WX    TMP DP  RH WIND       PRES   REMARKS
LINCOLN        CLOUDY    78  71  79 S7        30.19S
OMAHA EPPLEY   PTSUNNY   77  68  73 SE9       30.18F
BEATRICE       MOSUNNY   75  71  86 SE3       30.19S
FALLS CITY     PTSUNNY   78  72  81 S5        30.19R
NEBRASKA CITY  CLOUDY    74  74  98 CALM      30.20R
PLATTSMOUTH    MOSUNNY   76  70  80 SE3       30.20S
$$

NEZ044-045-051>053-067-291600-
OMAHA AREA

CITY           SKY/WX    TMP DP  RH WIND       PRES   REMARKS
OMAHA EPPLEY   PTSUNNY   77  68  73 SE9       30.18F
BLAIR          MOSUNNY   75  70  83 CALM      30.19S
FREMONT        MOSUNNY   75  70  83 SE9       30.20R
MILLARD        CLOUDY    76  70  80 SE6       30.18S
OFFUTT AFB     PTSUNNY   77  71  81 SE8       30.18F
PLATTSMOUTH    MOSUNNY   76  70  80 SE3       30.20S
WAHOO          FAIR      74  70  86 CALM      30.19S
$$




USA.gov is the U.S. government's official web portal to all federal, state and local government web resources and services.